Location: Deposit
(42.0600°N, 75.4280°W)
Time: 19:48:33
(UTC-05:00)

ISS - Pass Details

Date: 28 October 2019
Orbit: 412 x 421 km, 51.6° (Epoch: 12 November)

Event Time Altitude Azimuth Distance (km) Brightness Sun altitude
Exits shadow 06:55:38 - 279° (W) 1,582 -1.5 -6.9°
Reaches altitude 10° 06:55:52 10° 281° (W) 1,504 -1.6 -6.9°
Maximum altitude 06:58:45 26° 340° (NNW) 874 -2.4 -6.3°
Drops below altitude 10° 07:01:39 10° 39° (NE) 1,505 -0.6 -5.8°
Sets 07:03:59 0° 53° (NE) 2,370 0.7 -5.4°
